Ellsworth AFB, SD

9:13 AM MDT on April 26, 2018 (GMT -0600)
Ellsworth Air Force Base

Weather History for KRCA - April, 2013

Change the Weather History Date:

Wednesday, April 17, 2013

  Actual Average Record
Temperature  
Mean Temperature 26 °F -  
Max Temperature 28 °F 55 °F 87 °F (2005)
Min Temperature 24 °F 33 °F 19 °F (1999)
Degree Days  
Heating Degree Days 39    
Moisture  
Dew Point 25 °F    
Average Humidity 91    
Maximum Humidity 100    
Minimum Humidity 80    
Precipitation  
Precipitation 0.04 in - - ()
Sea Level Pressure  
Sea Level Pressure 30.29 in    
Wind  
Wind Speed 12 mph (North)    
Max Wind Speed 24 mph    
Max Gust Speed -    
Visibility 3 miles    
Events Snow    
Averages and records for this station are not official NWS values.
T = Trace of Precipitation, MM = Missing Value Source: NWS Daily Summary

Daily Weather History Graph

Daily Weather History Graph

Search for Another Location

Airport or City:

Astronomy

Apr. 17, 2013 Rise Set
Actual Time 6:05 AM MDT 7:39 PM MDT
Civil Twilight 5:34 AM MDT 8:09 PM MDT
Nautical Twilight 4:58 AM MDT 8:46 PM MDT
Astronomical Twilight 4:18 AM MDT 9:26 PM MDT
Moon 11:17 AM MDT (4/17) 1:23 AM MDT (4/17)
Length of Visible Light 14h 35m
Length of Day
13h 34m
Waxing Crescent, 43% of the Moon is Illuminated
Apr 17
Waxing Crescent
Apr 18
First Quarter
Apr 25
Full
May 2
Last Quarter
May 9
New

Hourly Weather History & Observations

Time (MDT) Temp. Windchill Dew Point Humidity Pressure Visibility Wind Dir Wind Speed Gust Speed Precip Events Conditions
12:29 AM 26.6 °F 18.2 °F 24.8 °F 93% 30.35 in 3.0 mi NNW 8.1 mph - N/A Snow Light Snow
12:55 AM 27.0 °F 19.5 °F 25.2 °F 93% 30.34 in 6.0 mi North 6.9 mph - 0.00 in Snow Light Snow
1:17 AM 26.6 °F 18.2 °F 24.8 °F 93% 30.32 in 2.5 mi North 8.1 mph - N/A Snow Light Snow
1:25 AM 26.6 °F 18.2 °F 24.8 °F 93% 30.32 in 2.0 mi North 8.1 mph - N/A Snow Light Snow
1:33 AM 26.6 °F 19.1 °F 24.8 °F 93% 30.33 in 2.5 mi North 6.9 mph - N/A Snow Light Snow
1:36 AM 26.6 °F 19.1 °F 24.8 °F 93% 30.33 in 3.0 mi NNE 6.9 mph - N/A Snow Light Snow
1:42 AM 26.6 °F 18.2 °F 24.8 °F 93% 30.32 in 6.0 mi NNE 8.1 mph - N/A Snow Light Snow
1:55 AM 26.6 °F 19.1 °F 24.8 °F 93% 30.32 in 3.0 mi NE 6.9 mph - 0.00 in Snow Light Snow
1:58 AM 26.6 °F 18.2 °F 24.8 °F 93% 30.32 in 2.5 mi NE 8.1 mph - N/A Snow Light Snow
2:11 AM 26.6 °F 19.1 °F 24.8 °F 93% 30.32 in 3.0 mi ENE 6.9 mph - N/A Snow Light Snow
2:15 AM 26.6 °F 19.1 °F 24.8 °F 93% 30.32 in 2.5 mi ENE 6.9 mph - N/A Snow Light Snow
2:24 AM 26.6 °F 18.2 °F 24.8 °F 93% 30.32 in 3.0 mi East 8.1 mph - N/A   Overcast
2:36 AM 26.6 °F 18.2 °F 24.8 °F 93% 30.32 in 3.0 mi ENE 8.1 mph - N/A   Overcast
2:41 AM 26.6 °F 19.1 °F 24.8 °F 93% 30.31 in 3.0 mi ENE 6.9 mph - N/A Snow Light Snow
2:55 AM 25.7 °F 18.0 °F 24.1 °F 94% 30.30 in 2.5 mi ENE 6.9 mph - 0.00 in Snow Light Snow
3:38 AM 24.8 °F 19.1 °F 23.0 °F 93% 30.31 in 2.0 mi ENE 4.6 mph - N/A Snow Light Snow
3:49 AM 24.8 °F 19.1 °F 23.0 °F 93% 30.31 in 2.5 mi East 4.6 mph - N/A Snow Light Snow
3:53 AM 24.8 °F 19.1 °F 23.0 °F 93% 30.30 in 2.0 mi ENE 4.6 mph - N/A Snow Light Snow
3:55 AM 25.3 °F 19.7 °F 23.5 °F 93% 30.30 in 2.0 mi ENE 4.6 mph - 0.01 in Snow Light Snow
4:01 AM 24.8 °F 20.5 °F 23.0 °F 93% 30.31 in 2.5 mi ENE 3.5 mph - N/A   Overcast
4:14 AM 24.8 °F 19.1 °F 23.0 °F 93% 30.30 in 3.0 mi NE 4.6 mph - N/A   Overcast
4:15 AM 24.8 °F 19.1 °F 23.0 °F 93% 30.30 in 2.5 mi NE 4.6 mph - N/A   Overcast
4:18 AM 24.8 °F 19.1 °F 23.0 °F 93% 30.29 in 3.0 mi NE 4.6 mph - N/A   Overcast
4:55 AM 25.2 °F 18.3 °F 23.4 °F 93% 30.29 in 4.0 mi NE 5.8 mph - 0.00 in   Overcast
5:12 AM 24.8 °F 17.9 °F 23.0 °F 93% 30.30 in 2.5 mi NE 5.8 mph - N/A Snow Light Snow
5:18 AM 24.8 °F 19.1 °F 23.0 °F 93% 30.30 in 2.0 mi ENE 4.6 mph - N/A Snow Light Snow
5:31 AM 24.8 °F 17.9 °F 23.0 °F 93% 30.29 in 2.5 mi NE 5.8 mph - N/A Snow Light Snow
5:35 AM 24.8 °F 16.9 °F 23.0 °F 93% 30.29 in 3.0 mi NE 6.9 mph - N/A Snow Light Snow
5:55 AM 24.8 °F 16.9 °F 23.0 °F 93% 30.28 in 3.0 mi NE 6.9 mph - 0.00 in   Overcast
6:07 AM 24.8 °F 16.9 °F 23.0 °F 93% 30.29 in 4.0 mi NNE 6.9 mph - N/A Snow Light Snow
6:30 AM 24.8 °F 17.9 °F 23.0 °F 93% 30.29 in 10.0 mi NNE 5.8 mph - N/A Snow Light Snow
6:32 AM 24.8 °F 17.9 °F 23.0 °F 93% 30.29 in 10.0 mi NNE 5.8 mph - N/A   Overcast
6:46 AM 24.8 °F 19.1 °F 23.0 °F 93% 30.30 in 10.0 mi NNE 4.6 mph - N/A   Overcast
6:55 AM 25.0 °F 19.3 °F 23.2 °F 93% 30.30 in 9.0 mi NNE 4.6 mph - 0.00 in   Overcast
6:56 AM 24.8 °F 19.1 °F 23.0 °F 93% 30.30 in 8.0 mi NNE 4.6 mph - N/A   Overcast
7:00 AM 24.8 °F 19.1 °F 23.0 °F 93% 30.30 in 9.0 mi NNE 4.6 mph - N/A   Overcast
7:13 AM 24.8 °F 19.1 °F 23.0 °F 93% 30.30 in 8.0 mi NNE 4.6 mph - N/A   Overcast
7:55 AM 25.3 °F 18.5 °F 23.4 °F 92% 30.32 in 5.0 mi NNE 5.8 mph - 0.00 in Snow Light Snow
8:55 AM 26.2 °F 18.6 °F 23.4 °F 89% 30.32 in 7.0 mi NNE 6.9 mph - 0.00 in   Overcast
9:54 AM 26.6 °F 16.2 °F 23.0 °F 86% 30.30 in 2.5 mi North 11.5 mph - N/A Snow Light Snow
9:55 AM 27.1 °F 16.9 °F 23.7 °F 87% 30.30 in 2.5 mi North 11.5 mph - 0.00 in Snow Light Snow
9:56 AM 26.6 °F 16.2 °F 23.0 °F 86% 30.30 in 2.0 mi North 11.5 mph - N/A Snow Light Snow
10:00 AM 26.6 °F 16.2 °F 23.0 °F 86% 30.30 in 1.8 mi North 11.5 mph - N/A Snow Light Snow
10:05 AM 26.6 °F 16.2 °F 24.8 °F 93% 30.30 in 2.0 mi North 11.5 mph - N/A Snow Light Snow
10:09 AM 26.6 °F 15.7 °F 24.8 °F 93% 30.30 in 2.5 mi North 12.7 mph - N/A Snow Light Snow
10:14 AM 26.6 °F 15.7 °F 24.8 °F 93% 30.29 in 3.0 mi North 12.7 mph - N/A Snow Light Snow
10:16 AM 28.4 °F 18.0 °F 24.8 °F 86% 30.29 in 2.5 mi North 12.7 mph - N/A   Overcast
10:20 AM 28.4 °F 18.5 °F 24.8 °F 86% 30.29 in 2.0 mi North 11.5 mph - N/A   Overcast
10:24 AM 28.4 °F 18.5 °F 24.8 °F 86% 30.29 in 1.8 mi North 11.5 mph - N/A   Overcast
10:27 AM 28.4 °F 18.5 °F 24.8 °F 86% 30.29 in 2.0 mi North 11.5 mph - N/A   Overcast
10:45 AM 28.4 °F 18.0 °F 24.8 °F 86% 30.28 in 2.5 mi North 12.7 mph - N/A   Overcast
10:55 AM 28.0 °F 16.5 °F 24.4 °F 86% 30.28 in 2.5 mi North 15.0 mph - 0.02 in   Overcast
10:58 AM 28.4 °F 17.5 °F 24.8 °F 86% 30.28 in 3.0 mi North 13.8 mph - N/A   Overcast
11:35 AM 28.4 °F 17.5 °F 24.8 °F 86% 30.28 in 8.0 mi North 13.8 mph - N/A   Overcast
11:52 AM 28.4 °F 18.0 °F 24.8 °F 86% 30.27 in 9.0 mi North 12.7 mph - N/A   Overcast
11:55 AM 27.9 °F 16.8 °F 24.3 °F 86% 30.28 in 10.0 mi North 13.8 mph - 0.01 in   Overcast
12:13 PM 28.4 °F 17.0 °F 24.8 °F 86% 30.27 in 9.0 mi North 15.0 mph - N/A   Overcast
12:55 PM 28.0 °F 17.0 °F 23.5 °F 83% 30.28 in 10.0 mi North 13.8 mph - 0.00 in   Overcast
1:15 PM 28.4 °F 17.0 °F 23.0 °F 80% 30.27 in 10.0 mi North 15.0 mph - N/A   Overcast
1:29 PM 28.4 °F 17.5 °F 23.0 °F 80% 30.29 in 6.0 mi North 13.8 mph - N/A Snow Light Snow
1:31 PM 28.4 °F 17.0 °F 23.0 °F 80% 30.29 in 5.0 mi North 15.0 mph - N/A Snow Light Snow
1:34 PM 28.4 °F 17.5 °F 23.0 °F 80% 30.29 in 4.0 mi North 13.8 mph - N/A Snow Light Snow
1:35 PM 28.4 °F 17.5 °F 24.8 °F 86% 30.28 in 4.0 mi North 13.8 mph - N/A Snow Light Snow
1:39 PM 28.4 °F 16.6 °F 23.0 °F 80% 30.27 in 2.5 mi North 16.1 mph - N/A Snow Light Snow
1:40 PM 28.4 °F 16.6 °F 23.0 °F 80% 30.27 in 2.5 mi North 16.1 mph - N/A Snow Light Snow
1:41 PM 28.4 °F 17.0 °F 23.0 °F 80% 30.27 in 2.5 mi North 15.0 mph - N/A Snow Light Snow
1:43 PM 28.4 °F 16.2 °F 24.8 °F 86% 30.27 in 2.0 mi North 17.3 mph - N/A Snow Light Snow
1:53 PM 28.4 °F 16.6 °F 24.8 °F 86% 30.27 in 2.0 mi North 16.1 mph - N/A Snow Light Snow
1:55 PM 28.6 °F 16.8 °F 25.0 °F 86% 30.27 in 2.0 mi North 16.1 mph - 0.00 in Snow Light Snow
1:59 PM 28.4 °F 17.0 °F 24.8 °F 86% 30.27 in 1.8 mi North 15.0 mph - N/A Snow Light Snow
2:01 PM 28.4 °F 16.6 °F 24.8 °F 86% 30.28 in 1.8 mi North 16.1 mph - N/A Snow Light Snow
2:05 PM 28.4 °F 15.8 °F 24.8 °F 86% 30.28 in 1.8 mi North 18.4 mph - N/A Snow Light Snow
2:08 PM 28.4 °F 16.2 °F 24.8 °F 86% 30.28 in 1.8 mi North 17.3 mph - N/A Snow Light Snow
2:09 PM 28.4 °F 16.6 °F 24.8 °F 86% 30.27 in 2.0 mi North 16.1 mph - N/A Snow Light Snow
2:30 PM 28.4 °F 16.6 °F 24.8 °F 86% 30.27 in 3.0 mi North 16.1 mph - N/A   Overcast
2:43 PM 28.4 °F 17.5 °F 24.8 °F 86% 30.27 in 2.5 mi North 13.8 mph - N/A   Overcast
2:47 PM 28.4 °F 17.0 °F 24.8 °F 86% 30.27 in 2.5 mi North 15.0 mph - N/A   Overcast
2:53 PM 28.4 °F 17.0 °F 24.8 °F 86% 30.27 in 2.5 mi North 15.0 mph - N/A   Overcast
2:54 PM 28.4 °F 17.5 °F 24.8 °F 86% 30.27 in 3.0 mi North 13.8 mph - N/A   Overcast
2:55 PM 28.2 °F 17.2 °F 25.0 °F 88% 30.27 in 3.0 mi North 13.8 mph - 0.00 in   Overcast
3:09 PM 28.4 °F 16.6 °F 26.6 °F 93% 30.27 in 4.0 mi North 16.1 mph - N/A Snow Light Snow
3:11 PM 28.4 °F 17.0 °F 24.8 °F 86% 30.27 in 4.0 mi North 15.0 mph - N/A Snow Light Snow
3:23 PM 28.4 °F 17.0 °F 24.8 °F 86% 30.27 in 4.0 mi North 15.0 mph - N/A Snow Light Snow
3:31 PM 28.4 °F 17.5 °F 24.8 °F 86% 30.26 in 3.0 mi North 13.8 mph - N/A   Overcast
3:32 PM 28.4 °F 17.0 °F 24.8 °F 86% 30.26 in 2.5 mi North 15.0 mph - N/A   Overcast
3:40 PM 28.4 °F 16.6 °F 26.6 °F 93% 30.26 in 3.0 mi North 16.1 mph - N/A   Overcast
3:43 PM 28.4 °F 17.0 °F 26.6 °F 93% 30.26 in 2.5 mi North 15.0 mph - N/A   Overcast
3:46 PM 28.4 °F 17.5 °F 26.6 °F 93% 30.27 in 3.0 mi North 13.8 mph - N/A   Overcast
3:47 PM 28.4 °F 17.0 °F 26.6 °F 93% 30.27 in 3.0 mi North 15.0 mph - N/A   Overcast
3:48 PM 28.4 °F 17.0 °F 26.6 °F 93% 30.27 in 2.5 mi North 15.0 mph - N/A Snow Light Snow
3:49 PM 28.4 °F 17.0 °F 26.6 °F 93% 30.27 in 2.5 mi North 15.0 mph - N/A Snow Light Snow
3:55 PM 28.8 °F 18.4 °F 25.9 °F 89% 30.27 in 2.5 mi North 12.7 mph - 0.00 in Snow Light Snow
4:02 PM 28.4 °F 17.5 °F 26.6 °F 93% 30.28 in 2.0 mi North 13.8 mph - N/A   Overcast
4:12 PM 28.4 °F 18.0 °F 26.6 °F 93% 30.27 in 1.8 mi North 12.7 mph - N/A   Overcast
4:13 PM 28.4 °F 17.5 °F 26.6 °F 93% 30.27 in 1.5 mi North 13.8 mph - N/A   Overcast
4:15 PM 28.4 °F 16.6 °F 26.6 °F 93% 30.27 in 1.2 mi North 16.1 mph - N/A   Overcast
4:16 PM 28.4 °F 16.6 °F 26.6 °F 93% 30.27 in 1.0 mi North 16.1 mph - N/A   Overcast
4:25 PM 28.4 °F 17.0 °F 24.8 °F 86% 30.27 in 1.2 mi North 15.0 mph - N/A   Overcast
4:28 PM 28.4 °F 16.6 °F 24.8 °F 86% 30.27 in 1.5 mi North 16.1 mph - N/A   Overcast
4:29 PM 28.4 °F 16.6 °F 24.8 °F 86% 30.27 in 1.8 mi North 16.1 mph - N/A   Overcast
4:36 PM 28.4 °F 17.0 °F 26.6 °F 93% 30.26 in 2.0 mi North 15.0 mph - N/A   Overcast
4:44 PM 28.4 °F 17.0 °F 26.6 °F 93% 30.26 in 1.8 mi North 15.0 mph - N/A   Overcast
4:48 PM 28.4 °F 17.0 °F 26.6 °F 93% 30.26 in 1.5 mi North 15.0 mph - N/A Snow Light Snow
4:53 PM 28.4 °F 16.6 °F 26.6 °F 93% 30.26 in 1.2 mi North 16.1 mph - N/A Snow Light Snow
4:54 PM 28.4 °F 16.6 °F 26.6 °F 93% 30.26 in 1.5 mi North 16.1 mph - N/A Snow Light Snow
4:55 PM 28.4 °F 16.6 °F 26.1 °F 91% 30.26 in 1.2 mi North 16.1 mph - 0.00 in Snow Light Snow
5:02 PM 28.4 °F 15.4 °F 26.6 °F 93% 30.26 in 1.5 mi North 19.6 mph - N/A Snow Light Snow
5:05 PM 28.4 °F 15.8 °F 26.6 °F 93% 30.26 in 1.8 mi North 18.4 mph - N/A Snow Light Snow
5:07 PM 28.4 °F 15.8 °F 26.6 °F 93% 30.26 in 2.0 mi North 18.4 mph - N/A Snow Light Snow
5:10 PM 28.4 °F 16.6 °F 24.8 °F 86% 30.27 in 2.5 mi North 16.1 mph - N/A Snow Light Snow
5:17 PM 28.4 °F 15.8 °F 24.8 °F 86% 30.27 in 2.0 mi North 18.4 mph - N/A   Overcast
5:23 PM 28.4 °F 16.2 °F 26.6 °F 93% 30.27 in 1.8 mi North 17.3 mph - N/A   Overcast
5:28 PM 28.4 °F 16.2 °F 24.8 °F 86% 30.27 in 2.0 mi North 17.3 mph - N/A   Overcast
5:32 PM 28.4 °F 16.2 °F 26.6 °F 93% 30.27 in 2.5 mi North 17.3 mph - N/A   Overcast
5:34 PM 28.4 °F 16.6 °F 24.8 °F 86% 30.27 in 3.0 mi North 16.1 mph - N/A   Overcast
5:39 PM 28.4 °F 16.6 °F 24.8 °F 86% 30.27 in 2.5 mi North 16.1 mph - N/A   Overcast
5:49 PM 28.4 °F 16.6 °F 26.6 °F 93% 30.27 in 2.0 mi North 16.1 mph - N/A Snow Light Snow
5:54 PM 28.4 °F 16.2 °F 24.8 °F 86% 30.28 in 1.8 mi North 17.3 mph - N/A   Overcast
5:55 PM 27.9 °F 15.5 °F 25.7 °F 92% 30.28 in 1.8 mi North 17.3 mph - 0.00 in   Overcast
5:58 PM 28.4 °F 16.2 °F 24.8 °F 86% 30.28 in 1.5 mi North 17.3 mph - N/A   Overcast
6:19 PM 28.4 °F 15.8 °F 26.6 °F 93% 30.29 in 1.8 mi North 18.4 mph - N/A Snow Light Snow
6:27 PM 28.4 °F 16.2 °F 26.6 °F 93% 30.30 in 2.0 mi North 17.3 mph - N/A Snow Light Snow
6:30 PM 28.4 °F 16.6 °F 24.8 °F 86% 30.29 in 2.5 mi North 16.1 mph - N/A Snow Light Snow
6:32 PM 28.4 °F 16.6 °F 24.8 °F 86% 30.29 in 2.5 mi North 16.1 mph - N/A Snow Light Snow
6:33 PM 28.4 °F 16.2 °F 24.8 °F 86% 30.29 in 3.0 mi North 17.3 mph - N/A Snow Light Snow
6:36 PM 28.4 °F 17.0 °F 24.8 °F 86% 30.29 in 2.5 mi North 15.0 mph - N/A Snow Light Snow
6:39 PM 28.4 °F 16.6 °F 24.8 °F 86% 30.29 in 2.0 mi North 16.1 mph - N/A Snow Light Snow
6:41 PM 28.4 °F 16.6 °F 26.6 °F 93% 30.29 in 1.8 mi North 16.1 mph - N/A Snow Light Snow
6:44 PM 28.4 °F 16.6 °F 26.6 °F 93% 30.28 in 1.5 mi North 16.1 mph - N/A Snow Light Snow
6:48 PM 28.4 °F 16.6 °F 26.6 °F 93% 30.28 in 1.2 mi North 16.1 mph - N/A Snow Light Snow
6:52 PM 28.4 °F 15.8 °F 24.8 °F 86% 30.28 in 1.0 mi North 18.4 mph - N/A Snow Light Snow
6:55 PM 27.7 °F 14.5 °F 25.9 °F 93% 30.28 in 1.0 mi North 19.6 mph - 0.00 in Snow Light Snow
6:57 PM 28.4 °F 16.2 °F 26.6 °F 93% 30.28 in 1.0 mi North 17.3 mph - N/A Snow Light Snow
6:58 PM 28.4 °F 15.8 °F 26.6 °F 93% 30.28 in 1.0 mi North 18.4 mph - N/A Snow Light Snow
7:01 PM 28.4 °F 16.6 °F 26.6 °F 93% 30.29 in 1.2 mi North 16.1 mph - N/A Snow Light Snow
7:04 PM 28.4 °F 16.6 °F 26.6 °F 93% 30.29 in 1.5 mi North 16.1 mph - N/A Snow Light Snow
7:08 PM 28.4 °F 16.2 °F 26.6 °F 93% 30.28 in 1.8 mi NNW 17.3 mph - N/A Snow Light Snow
7:09 PM 28.4 °F 15.4 °F 26.6 °F 93% 30.28 in 1.5 mi NNW 19.6 mph - N/A Snow Light Snow
7:12 PM 28.4 °F 15.1 °F 26.6 °F 93% 30.28 in 1.2 mi NNW 20.7 mph - N/A Snow Light Snow
7:15 PM 28.4 °F 15.1 °F 26.6 °F 93% 30.27 in 1.0 mi North 20.7 mph - N/A Snow Light Snow
7:18 PM 28.4 °F 15.1 °F 26.6 °F 93% 30.28 in 0.8 mi North 20.7 mph - N/A Snow Light Snow
7:21 PM 28.4 °F 15.1 °F 26.6 °F 93% 30.28 in 0.8 mi North 20.7 mph - N/A Snow Light Snow
7:22 PM 28.4 °F 15.4 °F 26.6 °F 93% 30.29 in 0.8 mi North 19.6 mph - N/A Snow Light Snow
7:25 PM 28.4 °F 16.2 °F 26.6 °F 93% 30.29 in 0.8 mi North 17.3 mph - N/A Snow Light Snow
7:31 PM 26.6 °F 13.1 °F 26.6 °F 100% 30.28 in 1.0 mi North 19.6 mph - N/A Snow Light Snow
7:42 PM 26.6 °F 14.7 °F 24.8 °F 93% 30.29 in 1.2 mi North 15.0 mph - N/A Snow Light Snow
7:48 PM 26.6 °F 13.8 °F 24.8 °F 93% 30.29 in 1.0 mi NNW 17.3 mph - N/A Snow Light Snow
7:52 PM 26.6 °F 12.7 °F 24.8 °F 93% 30.29 in 0.8 mi NNW 20.7 mph - N/A Snow Light Snow
7:54 PM 26.6 °F 12.7 °F 24.8 °F 93% 30.28 in 0.8 mi NNW 20.7 mph - N/A Snow Light Snow
7:56 PM 26.6 °F 12.4 °F 24.8 °F 93% 30.28 in 0.8 mi NNW 21.9 mph - N/A Snow Light Snow
8:02 PM 26.6 °F 11.7 °F 24.8 °F 93% 30.27 in 1.0 mi NNW 24.2 mph - N/A Snow Light Snow
8:05 PM 26.6 °F 11.7 °F 24.8 °F 93% 30.26 in 1.2 mi NNW 24.2 mph - N/A Snow Light Snow
8:07 PM 26.6 °F 12.7 °F 24.8 °F 93% 30.26 in 1.5 mi NNW 20.7 mph - N/A Snow Light Snow
8:09 PM 26.6 °F 12.0 °F 24.8 °F 93% 30.26 in 1.8 mi NNW 23.0 mph - N/A Snow Light Snow
8:10 PM 26.6 °F 11.7 °F 24.8 °F 93% 30.26 in 1.8 mi NNW 24.2 mph - N/A Snow Light Snow
8:11 PM 26.6 °F 11.7 °F 24.8 °F 93% 30.26 in 2.0 mi NNW 24.2 mph - N/A Snow Light Snow
8:12 PM 26.6 °F 11.7 °F 24.8 °F 93% 30.27 in 2.0 mi NNW 24.2 mph - N/A Snow Light Snow
8:15 PM 26.6 °F 12.4 °F 24.8 °F 93% 30.27 in 2.0 mi NNW 21.9 mph - N/A Snow Light Snow
8:20 PM 26.6 °F 12.0 °F 24.8 °F 93% 30.27 in 2.5 mi NNW 23.0 mph - N/A Snow Light Snow
8:21 PM 26.6 °F 12.0 °F 24.8 °F 93% 30.27 in 2.5 mi NNW 23.0 mph - N/A Snow Light Snow
8:31 PM 26.6 °F 12.7 °F 24.8 °F 93% 30.30 in 2.0 mi NNW 20.7 mph - N/A Snow Light Snow
8:44 PM 26.6 °F 13.8 °F 24.8 °F 93% 30.30 in 2.5 mi NNW 17.3 mph - N/A Snow Light Snow
8:50 PM 26.6 °F 13.4 °F 24.8 °F 93% 30.29 in 2.0 mi NNW 18.4 mph - N/A Snow Light Snow
8:55 PM 26.8 °F 14.1 °F 25.0 °F 93% 30.30 in 2.0 mi North 17.3 mph - 0.00 in Snow Light Snow
9:12 PM 26.6 °F 14.3 °F 24.8 °F 93% 30.30 in 2.5 mi NNW 16.1 mph - N/A Snow Light Snow
9:27 PM 26.6 °F 13.4 °F 24.8 °F 93% 30.31 in 1.8 mi NNW 18.4 mph - N/A Snow Light Snow
9:29 PM 26.6 °F 14.3 °F 24.8 °F 93% 30.31 in 1.5 mi NNW 16.1 mph - N/A Snow Light Snow
9:33 PM 26.6 °F 13.4 °F 24.8 °F 93% 30.31 in 1.2 mi NNW 18.4 mph - N/A Snow Light Snow
9:42 PM 26.6 °F 13.8 °F 24.8 °F 93% 30.31 in 1.0 mi North 17.3 mph - N/A Snow Light Snow
9:55 PM 26.6 °F 13.8 °F 24.8 °F 93% 30.30 in 1.0 mi North 17.3 mph - N/A Snow Light Snow
9:57 PM 26.6 °F 13.8 °F 24.8 °F 93% 30.30 in 1.0 mi North 17.3 mph - N/A Snow Light Snow
10:12 PM 26.6 °F 13.8 °F 24.8 °F 93% 30.31 in 1.5 mi North 17.3 mph - N/A Snow Light Snow
10:15 PM 26.6 °F 13.4 °F 24.8 °F 93% 30.31 in 1.8 mi North 18.4 mph - N/A Snow Light Snow
10:19 PM 26.6 °F 13.8 °F 24.8 °F 93% 30.31 in 2.0 mi North 17.3 mph - N/A Snow Light Snow
10:23 PM 26.6 °F 13.4 °F 24.8 °F 93% 30.31 in 2.5 mi North 18.4 mph - N/A Snow Light Snow
10:26 PM 26.6 °F 13.8 °F 24.8 °F 93% 30.30 in 3.0 mi North 17.3 mph - N/A Snow Light Snow
10:40 PM 24.8 °F 12.4 °F 23.0 °F 93% 30.29 in 2.0 mi North 15.0 mph - N/A Snow Light Snow
11:01 PM 24.8 °F 13.4 °F 23.0 °F 93% 30.29 in 2.5 mi North 12.7 mph - N/A Snow Light Snow
11:06 PM 24.8 °F 13.4 °F 23.0 °F 93% 30.29 in 3.0 mi North 12.7 mph - N/A Snow Light Snow
11:20 PM 24.8 °F 11.5 °F 23.0 °F 93% 30.26 in 2.0 mi North 17.3 mph - N/A Snow Light Snow
11:23 PM 24.8 °F 11.5 °F 23.0 °F 93% 30.27 in 1.5 mi North 17.3 mph - N/A Snow Light Snow
11:30 PM 24.8 °F 12.4 °F 23.0 °F 93% 30.27 in 1.8 mi North 15.0 mph - N/A Snow Light Snow
11:31 PM 24.8 °F 12.4 °F 23.0 °F 93% 30.27 in 2.0 mi North 15.0 mph - N/A Snow Light Snow
11:33 PM 24.8 °F 12.4 °F 23.0 °F 93% 30.27 in 2.5 mi North 15.0 mph - N/A Snow Light Snow
11:34 PM 24.8 °F 12.4 °F 23.0 °F 93% 30.27 in 3.0 mi North 15.0 mph - N/A Snow Light Snow
11:55 PM 25.3 °F 13.6 °F 23.5 °F 93% 30.27 in 7.0 mi North 13.8 mph - 0.00 in   Overcast